[[{"header":{"parameterUnit":"m.s-1","parameterCategory":1,"la1":30.2991,"la2":30.254,"lo1":-89.0895,"lo2":-89.0444,"dy":0.0017,"dx":0.0017,"nx":28,"ny":28,"refTime":"2025-07-06T09:00:00:Z","depth":0,"parameterNumber":2,"parameterNumberName":"U-component_of_WINDS"},"data":[0,0,0,0,0,0,0,0,0,0,0,0,0,0,0,0,0,0,0,0,0,0,0,0,0,0,0,0,0,0,0,0,0,0,0,0,0,0,0,0,0,0,0,0,0,0,0,0,0,0,0,0,0,0,0,0,0,0,3.1954,3.1955,0,3.2002,3.2003,3.2003,3.1977,3.1976,3.1975,3.1973,3.2024,3.2026,3.2029,0,0,0,0,0,0,0,0,0,0,0,0,0,3.1841,3.1843,3.1954,3.1955,3.1955,3.2002,3.2003,3.2003,3.1977,3.1976,3.1974,3.1973,3.2023,3.2026,3.2029,0,0,0,0,0,0,0,0,0,0,0,0,0,3.189,3.1844,3.1954,3.1948,3.1948,3.2002,3.2003,3.2004,3.1978,3.1976,3.1974,3.1972,3.2022,3.2025,3.2029,3.2092,0,0,3.2041,3.2043,0,0,0,0,0,0,0,0,3.1887,3.1894,3.1948,3.1949,3.1949,3.1982,3.1981,3.2033,3.1978,3.1967,3.1973,3.1971,3.2011,3.2016,3.2029,3.2095,3.2097,3.2041,3.2044,3.2045,3.2046,0,0,0,0,0,0,0,3.1884,3.1892,3.1973,3.1949,3.1949,3.1943,3.1948,3.1991,3.1999,3.1967,3.1966,3.1972,3.2011,3.2026,3.203,3.2098,3.2041,3.2045,3.2047,3.2049,3.2217,3.2219,0,0,0,0,0,0,3.1881,3.1889,3.1972,3.1975,3.1912,3.1947,3.1952,3.1973,3.1999,3.2001,3.1973,3.197,3.202,3.2026,3.2032,3.2107,3.2045,3.2049,3.2051,3.2215,3.2217,3.222,0,0,0,0,0,0,3.1878,3.1888,3.197,3.1931,3.1941,3.1951,3.1975,3.1975,3.199,3.2003,3.2005,3.1986,3.2019,3.2026,3.2077,3.2109,3.2051,3.2054,3.2212,3.2216,3.2219,3.2258,0,0,0,0,0,0,3.1875,3.1887,3.1911,3.1932,3.1943,3.2014,3.1977,3.1977,3.1996,3.1993,3.2016,3.2018,3.2018,3.2072,3.2081,3.2113,3.2057,3.2209,3.2214,3.2218,3.2254,3.2263,3.227,0,0,0,0,0,3.1871,3.1921,3.1913,3.1923,3.1973,3.2016,3.2023,3.2021,3.1999,3.2023,3.2032,3.2017,3.2104,3.2077,3.2088,3.2121,3.2207,3.2212,3.2217,3.2251,3.2261,3.2269,0,0,0,0,0,0,3.1904,3.1924,3.1915,3.1973,3.1993,3.2012,3.2042,3.2032,3.2059,3.2055,3.2052,3.2057,3.211,3.212,3.2091,3.2183,3.2152,3.2159,3.2174,3.2184,3.2191,3.2188,3.206,0,0,0,0,0,3.1918,3.1951,3.1966,3.2016,3.2026,3.2033,3.2051,3.2048,3.2069,3.2077,3.209,3.2111,3.2143,3.2164,3.2194,3.2256,3.226,3.2284,3.2291,3.2298,3.2304,3.2337,3.2347,3.2236,3.2236,3.2236,0,0,3.1947,3.1962,3.1983,3.2023,3.2038,3.2072,3.204,3.2078,3.2103,3.2083,3.2132,3.2142,3.2165,3.2222,3.2247,3.2232,3.2336,3.2304,3.2309,3.2312,3.2343,3.2354,3.2363,3.2239,3.2238,3.2238,0,0,3.2018,3.2032,3.2075,3.2091,3.2114,3.2118,3.2129,3.2149,3.2155,3.2203,3.2189,3.2219,3.2274,3.2292,3.2308,3.2385,3.2372,3.2395,3.2435,3.2467,3.2476,3.2483,3.2511,3.252,3.2401,3.2401,3.2401,0,3.2051,3.2102,3.2099,3.2137,3.2155,3.2139,3.2182,3.2198,3.223,3.2243,3.2225,3.2294,3.2309,3.2369,3.2387,3.2401,3.2413,3.2392,3.2475,3.2482,3.249,3.2515,3.2526,3.2403,3.2403,3.2403,3.2403,0,3.2142,3.2177,3.2209,3.224,3.2262,3.2302,3.2306,3.2328,3.2323,3.2328,3.2378,3.2395,3.2428,3.2442,3.2438,3.2502,3.2492,3.2475,3.2443,3.2503,3.2527,3.2537,3.2407,3.2406,3.2405,3.2405,0,0,3.2235,3.2263,3.2275,3.2289,3.2313,3.234,3.2381,3.2412,3.2432,3.2454,3.2488,3.2535,3.2519,3.2537,3.2535,3.2563,3.2622,3.2542,3.2543,3.2556,3.2694,3.2706,3.2718,3.2615,3.2616,3.2618,3.2691,0,3.2307,3.2376,3.2374,3.2439,3.2472,3.2457,3.2491,3.251,3.2517,3.2546,3.2553,3.2586,3.2562,3.2573,3.2601,3.2609,3.265,3.2604,3.2646,3.2647,3.264,3.273,3.2744,3.2812,3.2701,3.2703,3.2704,0,3.24,3.2425,3.2493,3.2513,3.2526,3.2558,3.2587,3.2614,3.2636,3.2638,3.2658,3.2651,3.2692,3.266,3.2716,3.2685,3.2702,3.2709,3.2712,3.2715,3.2679,3.2736,3.2834,3.2844,3.2719,3.2718,3.2716,0,3.246,3.2512,3.2559,3.2571,3.2595,3.2618,3.2629,3.2648,3.2667,3.2693,3.2705,3.2735,3.2752,3.2775,3.2776,3.2753,3.2833,3.2801,3.2836,3.2836,3.2854,3.2853,3.2955,3.2865,3.2865,3.2865,3.2865,0,3.2541,3.2583,3.2586,3.2615,3.2662,3.266,3.2706,3.2715,3.2732,3.2763,3.2752,3.2781,3.2781,3.2811,3.2812,3.2858,3.2866,3.2869,3.2869,3.287,3.287,3.2881,3.2876,3.2868,3.2867,3.2867,3.2866,0,3.2616,3.262,3.2671,3.2689,3.2695,3.2728,3.2744,3.2772,3.2777,3.2816,3.2825,3.2833,3.2868,3.2871,3.2911,3.2912,3.2968,3.2963,3.2961,3.296,3.2994,3.2991,3.3108,3.3123,3.3023,3.3024,3.3025,0,3.2667,3.2699,3.2721,3.274,3.2753,3.2784,3.2804,3.2803,3.2823,3.285,3.2874,3.2907,3.2934,3.2989,3.2999,3.303,3.3025,3.3064,3.303,3.3029,3.3025,3.3023,3.3026,3.307,3.3072,3.3072,3.3073,0,3.2757,3.2757,3.2786,3.2815,3.2838,3.2861,3.2882,3.2899,3.29,3.2924,3.2959,3.2979,3.302,3.3053,3.3083,3.3094,3.3084,3.3084,3.3094,3.3095,3.3092,3.3093,3.2978,3.3081,3.308,3.308,3.3079,3.3079,3.2822,3.2849,3.2869,3.29,3.2916,3.2936,3.2963,3.2972,3.3,3.3033,3.3031,3.3069,3.3089,3.3128,3.3142,3.3172,3.3159,3.3173,3.3177,3.318,3.3183,3.3087,3.3178,3.3177,3.3177,3.3177,3.3177,0,3.2911,3.2922,3.2951,3.2981,3.3006,3.2994,3.3017,3.3039,3.3073,3.3092,3.3118,3.3158,3.319,3.3202,3.3233,3.3255,3.3251,3.3263,3.3261,3.3264,3.3194,3.3182,3.3266,3.3266,3.3266,3.3265,3.3265,3.3265,3.296,3.3006,3.3008,3.3062,3.3073,3.311,3.3124,3.3143,3.3158,3.3203,3.3229,3.3237,3.3253,3.3286,3.3314,3.3317,3.3329,3.3343,3.3344,3.3278,3.3269,3.326,3.3249,3.3346,3.3346,3.3411,3.3412,3.3412]},{"header":{"parameterUnit":"m.s-1","parameterCategory":1,"la1":30.2991,"la2":30.254,"lo1":-89.0895,"lo2":-89.0444,"dy":0.0017,"dx":0.0017,"nx":28,"ny":28,"refTime":"2025-07-06T09:00:00:Z","depth":0,"parameterNumber":3,"parameterNumberName":"V-component_of_WINDS"},"data":[0,0,0,0,0,0,0,0,0,0,0,0,0,0,0,0,0,0,0,0,0,0,0,0,0,0,0,0,0,0,0,0,0,0,0,0,0,0,0,0,0,0,0,0,0,0,0,0,0,0,0,0,0,0,0,0,0,0,1.7972,1.7972,0,1.7976,1.7976,1.7976,1.7968,1.7968,1.7968,1.7967,1.797,1.797,1.7971,0,0,0,0,0,0,0,0,0,0,0,0,0,1.7957,1.7957,1.7972,1.7972,1.7972,1.7976,1.7976,1.7976,1.7968,1.7968,1.7967,1.7967,1.797,1.797,1.7971,0,0,0,0,0,0,0,0,0,0,0,0,0,1.7962,1.7957,1.7972,1.7969,1.7969,1.7976,1.7976,1.7976,1.7968,1.7968,1.7967,1.7967,1.797,1.797,1.7971,1.7981,0,0,1.7972,1.7972,0,0,0,0,0,0,0,0,1.7962,1.7963,1.7969,1.7969,1.7969,1.7971,1.7971,1.7978,1.7968,1.7968,1.7967,1.7967,1.7971,1.7971,1.7972,1.7981,1.7981,1.7972,1.7972,1.7973,1.7973,0,0,0,0,0,0,0,1.7962,1.7963,1.7974,1.7969,1.7969,1.7967,1.7967,1.7972,1.7971,1.7968,1.7968,1.7968,1.797,1.7972,1.7972,1.7981,1.7972,1.7972,1.7973,1.7973,1.7997,1.7997,0,0,0,0,0,0,1.7962,1.7962,1.7973,1.7974,1.7964,1.7967,1.7968,1.7971,1.7971,1.7971,1.7969,1.7968,1.7971,1.7972,1.7972,1.7984,1.7973,1.7973,1.7973,1.7997,1.7997,1.7997,0,0,0,0,0,0,1.7961,1.7963,1.7973,1.7968,1.7969,1.7968,1.7971,1.7971,1.7973,1.7972,1.7971,1.7971,1.7971,1.7972,1.7979,1.7984,1.7973,1.7974,1.7996,1.7997,1.7997,1.8007,0,0,0,0,0,0,1.7961,1.7963,1.7967,1.7968,1.7969,1.798,1.7972,1.7971,1.7974,1.7973,1.7973,1.7973,1.7971,1.7978,1.7979,1.7984,1.7974,1.7996,1.7996,1.7997,1.8006,1.8007,1.8009,0,0,0,0,0,1.7961,1.797,1.7968,1.7969,1.7975,1.798,1.7981,1.7979,1.7974,1.7978,1.7977,1.7973,1.7983,1.7979,1.798,1.7985,1.7995,1.7996,1.7997,1.8005,1.8007,1.8009,0,0,0,0,0,0,1.797,1.797,1.7967,1.7977,1.7979,1.7979,1.7984,1.7981,1.7984,1.7983,1.7979,1.7979,1.7986,1.7986,1.7982,1.7994,1.7988,1.7989,1.7994,1.7996,1.7997,1.7997,1.7974,0,0,0,0,0,1.7973,1.7978,1.7978,1.7986,1.7987,1.7986,1.7988,1.7986,1.7987,1.7988,1.7987,1.7988,1.7992,1.7994,1.7997,1.8006,1.8005,1.801,1.8011,1.8013,1.8013,1.8017,1.8019,1.8,1.8,1.8,0,0,1.798,1.798,1.7984,1.7988,1.7989,1.7993,1.7986,1.7991,1.7994,1.7988,1.7995,1.7994,1.7995,1.8003,1.8006,1.8003,1.8018,1.8014,1.8015,1.8015,1.8018,1.802,1.8021,1.8001,1.8001,1.8001,0,0,1.7994,1.7995,1.8002,1.8003,1.8004,1.8003,1.8005,1.8005,1.8005,1.8011,1.8006,1.8009,1.8015,1.8016,1.8017,1.803,1.8026,1.8031,1.8038,1.8042,1.8043,1.8044,1.8048,1.805,1.8032,1.8032,1.8032,0,1.8002,1.8009,1.8006,1.8011,1.8013,1.8007,1.8014,1.8015,1.8017,1.8018,1.8014,1.8021,1.8021,1.8028,1.8031,1.8033,1.8034,1.8031,1.8043,1.8044,1.8046,1.8049,1.8051,1.8032,1.8032,1.8032,1.8032,0,1.8018,1.8022,1.8028,1.803,1.8032,1.8038,1.8035,1.8038,1.8035,1.8034,1.804,1.804,1.8042,1.8044,1.8041,1.805,1.8048,1.8044,1.8038,1.8048,1.8051,1.8053,1.8033,1.8033,1.8033,1.8033,0,0,1.8038,1.8038,1.804,1.804,1.8041,1.8044,1.8049,1.8052,1.8053,1.8055,1.8058,1.8063,1.8059,1.806,1.8058,1.8061,1.807,1.8056,1.8056,1.8058,1.8078,1.8081,1.8083,1.8067,1.8067,1.8068,1.8078,0,1.8052,1.8061,1.8058,1.8066,1.807,1.8064,1.8069,1.8069,1.8068,1.807,1.8069,1.8072,1.8067,1.8067,1.807,1.8068,1.8074,1.8067,1.807,1.807,1.8069,1.8084,1.8087,1.8097,1.8079,1.8079,1.808,0,1.8069,1.807,1.8079,1.8078,1.808,1.8084,1.8085,1.8088,1.8088,1.8086,1.8087,1.8083,1.8087,1.8081,1.8086,1.8082,1.8083,1.8082,1.8082,1.8082,1.8075,1.8084,1.81,1.8101,1.8082,1.8082,1.8081,0,1.8081,1.8086,1.8092,1.8093,1.8092,1.8094,1.8094,1.8094,1.8095,1.8096,1.8096,1.8098,1.8098,1.8099,1.8096,1.8092,1.8101,1.8095,1.8099,1.8099,1.8101,1.8101,1.8117,1.8102,1.8102,1.8102,1.8102,0,1.8096,1.8102,1.8098,1.8101,1.8107,1.8103,1.8108,1.8107,1.8107,1.811,1.8105,1.8107,1.8103,1.8105,1.8102,1.8106,1.8106,1.8105,1.8104,1.8105,1.8105,1.8105,1.8104,1.8103,1.8103,1.8103,1.8102,0,1.8112,1.8109,1.8115,1.8113,1.8113,1.8117,1.8115,1.8118,1.8116,1.812,1.812,1.8117,1.8119,1.8115,1.8117,1.8115,1.812,1.8118,1.812,1.8119,1.8124,1.8123,1.814,1.8142,1.8126,1.8127,1.8127,0,1.8121,1.8125,1.8124,1.8125,1.8125,1.8128,1.8129,1.8125,1.8126,1.8125,1.8128,1.8129,1.813,1.8133,1.813,1.8131,1.8129,1.8135,1.8129,1.813,1.8128,1.8128,1.8128,1.8136,1.8136,1.8136,1.8136,0,1.8138,1.8136,1.8138,1.8139,1.814,1.8141,1.8141,1.8142,1.8138,1.814,1.8141,1.8142,1.8143,1.8144,1.8144,1.8143,1.8139,1.8138,1.8139,1.814,1.8141,1.8139,1.8123,1.8138,1.8138,1.8138,1.8137,1.8137,1.815,1.8153,1.8152,1.8154,1.8153,1.8154,1.8156,1.8154,1.8155,1.8156,1.8153,1.8155,1.8154,1.8153,1.8153,1.8154,1.8151,1.8152,1.8153,1.8153,1.8153,1.8141,1.8154,1.8154,1.8154,1.8154,1.8154,0,1.8165,1.8164,1.8166,1.8166,1.8168,1.8164,1.8164,1.8165,1.8166,1.8166,1.8166,1.8168,1.8168,1.8166,1.8166,1.8167,1.8165,1.8167,1.8167,1.8166,1.8156,1.8155,1.8169,1.8169,1.8169,1.8169,1.8169,1.8169,1.8174,1.8178,1.8176,1.818,1.8179,1.8181,1.8181,1.818,1.8179,1.8181,1.8182,1.818,1.8178,1.8178,1.8178,1.8177,1.8177,1.818,1.8178,1.8169,1.8167,1.8166,1.8165,1.818,1.818,1.8188,1.8188,1.8188]}]]